Voltar ao catálogo

SL-8 DEB

AtivoLEO
NORAD 8829·DEBRIS·🇷🇺 Russia

Lançado Sep 11, 1974 de Plesetsk Cosmodrome

Loading…

Próximas Passagens (próximas 24 horas)

TLE

AtualizadoSource: Space-Track

Época: Sep 14, 2026, 11:22 UTC

1 08829U 74071D   26257.47421490  .00001832  00000-0  31107-3 0  9998
2 08829  74.0544  66.6519 0013309 190.3722 169.7177 14.69902999826547

Acompanhe SL-8 DEB em tempo real com AllMySat

Download on the App Store